User: anonymous   Login
Location: Maiden
(35.5760°N, 81.2120°W)
Time: 11:44:29
(UTC-05:00)
Language:

Cosmos 2151 - Orbit

View from above orbital plane
View from above orbital plane
View from above satellite
View from above satellite

Ground track
Ground track

The orbit data is extracted from the following two-line orbital elements,

1 21422U 91042A   15062.68855418  .00001658  00000-0  16540-3 0  9995
2 21422 082.5034 322.0647 0013672 201.3567 158.7084 14.90923359283812
Epoch (UTC): 03 March 2015 16:31:31
Eccentricity: 0.0013672
inclination: 82.5034°
perigee height: 585 km
apogee height: 604 km
right ascension of ascending node: 322.0647°
argument of perigee: 201.3567°
revolutions per day: 14.90923359
mean anomaly at epoch: 158.7084°
orbit number at epoch: 28381

The dashed part of the orbit path shows where the satellite is in the earth's shadow,  

DLR